EW8704 Weather Reports


time (UTC)temp
C
wind
direction
speed
KPH
gust
KPH
rain 1hr
cm
rain 24hr
cm
rain mn
cm
humidity
%
barometer
mb
20260503223041 20 286 14.5 25.7 0.00 0.05 0.05 28 1002.6
20260503221549 20 298 24.1 33.8 0.00 0.05 0.05 27 1002.6
20260503220021 20 312 16.1 35.4 0.00 0.05 0.05 28 1002.7
20260503214530 20 311 17.7 29.0 0.00 0.05 0.05 28 1002.6
20260503213100 21 313 17.7 40.2 0.00 0.05 0.05 28 1002.7
20260503213009 20 293 17.7 40.2 0.00 0.05 0.05 31 1002.7
20260503211557 20 279 19.3 30.6 0.00 0.05 0.05 33 1002.7
20260503210048 20 296 17.7 32.2 0.00 0.05 0.05 30 1002.9
20260503204557 21 293 11.3 22.5 0.00 0.05 0.05 33 1002.9
20260503203018 20 275 16.1 29.0 0.00 0.05 0.05 36 1002.9
20260503201507 20 260 9.7 29.0 0.00 0.05 0.05 39 1003.1
20260503200043 20 290 9.7 25.7 0.00 0.05 0.05 37 1003.4
20260503194536 20 313 12.9 29.0 0.00 0.05 0.05 39 1003.5
20260503193004 20 308 19.3 32.2 0.00 0.05 0.05 35 1003.5
20260503191502 20 298 6.4 24.1 0.00 0.05 0.05 40 1003.6
20260503190043 20 355 16.1 25.7 0.00 0.05 0.05 38 1003.7
20260503184524 20 260 14.5 24.1 0.00 0.05 0.05 45 1003.7
20260503183050 19 282 14.5 22.5 0.00 0.05 0.05 42 1003.9
20260503181539 18 232 11.3 25.7 0.00 0.05 0.05 49 1004.1
20260503180108 18 295 14.5 24.1 0.00 0.05 0.05 46 1004.2
20260503180008 18 282 14.5 24.1 0.00 0.05 0.05 46 1004.3
20260503174554 18 277 12.9 24.1 0.00 0.05 0.05 46 1004.3
20260503173019 18 216 14.5 22.5 0.00 0.05 0.05 47 1004.4
20260503171514 17 309 11.3 20.9 0.00 0.05 0.05 46 1004.6
20260503081555 12 136 3.2 9.7 0.00 0.00 0.00 61 1007.3
20260503071540 12 111 0.0 3.2 0.00 0.00 0.00 61 1007.9
20260503054540 12 234 6.4 16.1 0.00 0.00 0.00 57 1009.6
20260503053019 12 250 9.7 14.5 0.00 0.00 0.00 54 1009.6
20260503051504 12 205 8.0 14.5 0.00 0.00 0.00 53 1009.4
20260503050144 12 183 4.8 11.3 0.00 0.00 0.00 54 1009.4
20260503044554 12 205 3.2 9.7 0.00 0.00 0.00 53 1009.5
20260503043023 12 194 4.8 11.3 0.00 0.00 0.00 50 1009.7
20260503041521 12 168 3.2 6.4 0.00 0.00 0.00 49 1009.9
20260503040043 12 177 3.2 8.0 0.00 0.00 0.00 49 1010.0
20260503034545 12 165 3.2 6.4 0.00 0.00 0.00 47 1010.2
20260503033005 12 182 4.8 6.4 0.00 0.00 0.00 46 1010.5
20260503031610 12 177 3.2 8.0 0.00 0.00 0.00 48 1010.7
20260503030035 13 173 4.8 8.0 0.00 0.00 0.00 47 1010.9
20260503024529 12 171 8.0 11.3 0.00 0.00 0.00 48 1011.0
20260503023000 12 193 4.8 8.0 0.00 0.00 0.00 47 1011.1
20260503021603 12 186 4.8 9.7 0.00 0.00 0.00 46 1011.1
20260503020041 13 163 4.8 8.0 0.00 0.00 0.00 47 1011.2
20260503014553 13 178 3.2 8.0 0.00 0.00 0.00 44 1011.2
20260503013024 13 184 4.8 8.0 0.00 0.00 0.00 44 1011.2
20260503011514 13 179 3.2 9.7 0.00 0.00 0.00 45 1011.3
20260503010052 13 173 4.8 8.0 0.00 0.00 0.00 44 1011.5
20260503004551 14 165 3.2 8.0 0.00 0.00 0.00 43 1011.5
20260503003023 14 203 4.8 9.7 0.00 0.00 0.00 42 1011.5
20260503001513 14 210 6.4 9.7 0.00 0.00 0.00 41 1011.8
20260503000058 15 196 4.8 14.5 0.00 0.00 0.00 41 1012.0
20260502234545 15 244 4.8 12.9 0.00 0.00 0.00 42 1012.2
20260502233021 15 219 8.0 20.9 0.00 0.00 0.00 41 1012.3
20260502231521 15 230 8.0 24.1 0.00 0.00 0.00 42 1012.3
20260502230051 15 219 16.1 24.1 0.00 0.00 0.00 40 1012.5
20260502224559 15 219 9.7 20.9 0.00 0.00 0.00 41 1012.7